When you browse on this site, cookies collect data to enhance your experience and personalize the content and advertising you see.
Visit our Privacy Policy to learn more. By continuing to use the site, you agree to this use of cookies and data.
  • In Hungary
  • List of Countries
  • For 7 days
  • Water Temperature
  • Satellite Maps
  • Weather Map
  • News
  • Weather Widgets
  • user-avatar
    Login

    Hourly Weather Węgrów

    Today, 16 January, Wednesday

    Time Temperature Precipitation Wind Pressure Humidity
    00:00 -2°C° 1.2 mm 5 mps 736 mmHg 97%
    01:00 -2°C° 0 mm 6 mps 735 mmHg 96%
    02:00 -2°C° 0.1 mm 6 mps 736 mmHg 94%
    03:00 -2°C° 0.1 mm 7 mps 736 mmHg 91%
    04:00 -1°C° 0.1 mm 8 mps 737 mmHg 89%
    05:00 -2°C° 0 mm 7 mps 738 mmHg 89%
    06:00 -2°C° 0 mm 5 mps 739 mmHg 89%
    07:00 -3°C° 0 mm 4 mps 741 mmHg 89%
    08:00 -2°C° 0 mm 3 mps 741 mmHg 90%
    09:00 -1°C° 0 mm 3 mps 742 mmHg 90%
    10:00 -1°C° 0 mm 2 mps 742 mmHg 90%
    11:00 -1°C° 0 mm 2 mps 742 mmHg 93%
    12:00 -1°C° 0 mm 2 mps 743 mmHg 95%
    13:00 +1°C° 0 mm 2 mps 743 mmHg 98%
    14:00 0°C° 0.1 mm 3 mps 743 mmHg 98%
    15:00 0°C° 0.1 mm 3 mps 743 mmHg 98%
    16:00 0°C° 0.1 mm 3 mps 743 mmHg 98%
    17:00 -1°C° 0.1 mm 4 mps 742 mmHg 98%
    18:00 0°C° 0.1 mm 4 mps 742 mmHg 98%
    19:00 0°C° 0.1 mm 4 mps 742 mmHg 98%
    20:00 0°C° 0 mm 5 mps 742 mmHg 97%
    21:00 0°C° 0 mm 5 mps 742 mmHg 96%
    22:00 0°C° 0 mm 5 mps 742 mmHg 95%
    23:00 0°C° 0 mm 5 mps 742 mmHg 94%

    Tomorrow, 17 January, Thursday

    Time Temperature Precipitation Wind Pressure Humidity
    00:00 -1°C° 0 mm 5 mps 742 mmHg 94%
    01:00 -1°C° 0 mm 5 mps 741 mmHg 93%
    02:00 -2°C° 0 mm 6 mps 741 mmHg 92%
    03:00 -2°C° 0 mm 6 mps 740 mmHg 90%
    04:00 -2°C° 0 mm 6 mps 739 mmHg 89%
    05:00 -2°C° 0 mm 6 mps 739 mmHg 87%
    06:00 -2°C° 0 mm 6 mps 738 mmHg 85%
    07:00 -2°C° 0 mm 7 mps 738 mmHg 83%
    08:00 -2°C° 0 mm 7 mps 738 mmHg 81%
    09:00 -1°C° 0 mm 7 mps 738 mmHg 80%
    10:00 -1°C° 0 mm 8 mps 737 mmHg 78%
    11:00 -1°C° 0 mm 7 mps 737 mmHg 80%
    12:00 -1°C° 0 mm 7 mps 738 mmHg 83%
    13:00 0°C° 0 mm 7 mps 738 mmHg 85%
    14:00 0°C° 0 mm 7 mps 738 mmHg 87%
    15:00 0°C° 0 mm 7 mps 738 mmHg 88%
    16:00 +1°C° 0 mm 6 mps 738 mmHg 89%
    17:00 -1°C° 0 mm 6 mps 739 mmHg 89%
    18:00 -1°C° 0 mm 6 mps 739 mmHg 89%
    19:00 -1°C° 0 mm 6 mps 739 mmHg 88%
    20:00 -1°C° 0 mm 6 mps 739 mmHg 89%
    21:00 -1°C° 0 mm 6 mps 738 mmHg 89%
    22:00 -1°C° 0 mm 6 mps 738 mmHg 90%
    23:00 -1°C° 0.2 mm 7 mps 739 mmHg 89%

    Day after tomorrow, 18 January, Friday

    Time Temperature Precipitation Wind Pressure Humidity
    00:00 -1°C° 0.2 mm 7 mps 739 mmHg 88%
    01:00 -1°C° 0.2 mm 8 mps 739 mmHg 87%
    02:00 -2°C° 0 mm 7 mps 739 mmHg 84%
    03:00 -2°C° 0 mm 7 mps 739 mmHg 82%
    04:00 -3°C° 0 mm 6 mps 740 mmHg 80%
    05:00 -3°C° 0 mm 7 mps 740 mmHg 80%
    06:00 -3°C° 0 mm 7 mps 740 mmHg 80%
    07:00 -4°C° 0 mm 8 mps 740 mmHg 81%
    08:00 -4°C° 0.1 mm 8 mps 741 mmHg 81%
    09:00 -4°C° 0.1 mm 9 mps 742 mmHg 82%
    10:00 -4°C° 0.1 mm 9 mps 743 mmHg 83%
    11:00 -4°C° 0.2 mm 8 mps 744 mmHg 79%
    12:00 -4°C° 0.2 mm 8 mps 745 mmHg 75%
    13:00 -3°C° 0.2 mm 7 mps 746 mmHg 71%
    14:00 -3°C° 0 mm 6 mps 747 mmHg 73%
    15:00 -4°C° 0 mm 5 mps 748 mmHg 75%
    16:00 -3°C° 0 mm 4 mps 749 mmHg 77%
    17:00 -4°C° 0 mm 4 mps 750 mmHg 78%
    18:00 -4°C° 0 mm 4 mps 750 mmHg 79%
    19:00 -4°C° 0 mm 4 mps 751 mmHg 80%
    20:00 -4°C° 0 mm 4 mps 751 mmHg 81%
    21:00 -4°C° 0 mm 4 mps 752 mmHg 82%
    22:00 -4°C° 0 mm 4 mps 752 mmHg 83%
    23:00 -5°C° 0 mm 5 mps 752 mmHg 84%

    19 January, Saturday

    Time Temperature Precipitation Wind Pressure Humidity
    00:00 -5°C° 0 mm 5 mps 752 mmHg 84%
    01:00 -5°C° 0 mm 5 mps 752 mmHg 85%
    02:00 -5°C° 0 mm 5 mps 752 mmHg 85%
    03:00 -5°C° 0 mm 5 mps 752 mmHg 84%
    04:00 -5°C° 0 mm 5 mps 751 mmHg 84%
    05:00 -5°C° 0 mm 5 mps 752 mmHg 84%
    06:00 -4°C° 0 mm 4 mps 752 mmHg 85%
    07:00 -4°C° 0 mm 4 mps 752 mmHg 86%
    08:00 -4°C° 0 mm 4 mps 752 mmHg 85%
    09:00 -4°C° 0 mm 4 mps 753 mmHg 84%
    10:00 -2°C° 0 mm 3 mps 753 mmHg 84%
    11:00 -2°C° 0 mm 3 mps 753 mmHg 83%
    12:00 -2°C° 0 mm 3 mps 752 mmHg 83%
    13:00 -1°C° 0 mm 3 mps 752 mmHg 82%
    14:00 -2°C° 0 mm 3 mps 752 mmHg 84%
    15:00 -2°C° 0 mm 3 mps 752 mmHg 86%
    16:00 -3°C° 0 mm 2 mps 752 mmHg 87%
    17:00 -3°C° 0 mm 2 mps 752 mmHg 87%
    18:00 -3°C° 0 mm 2 mps 752 mmHg 88%
    19:00 -3°C° 0 mm 2 mps 752 mmHg 88%
    20:00 -3°C° 0 mm 2 mps 752 mmHg 88%
    21:00 -4°C° 0 mm 2 mps 752 mmHg 88%
    22:00 -4°C° 0 mm 2 mps 751 mmHg 88%
    23:00 -4°C° 0 mm 2 mps 751 mmHg 89%

    20 January, Sunday

    Time Temperature Precipitation Wind Pressure Humidity
    00:00 -2°C° 0 mm 1 mps 751 mmHg 89%
    01:00 -2°C° 0 mm 1 mps 751 mmHg 89%
    02:00 -2°C° 0 mm 1 mps 751 mmHg 90%
    03:00 -2°C° 0 mm 1 mps 750 mmHg 90%
    04:00 -2°C° 0 mm 1 mps 750 mmHg 91%
    05:00 -2°C° 0 mm 1 mps 750 mmHg 90%
    06:00 -3°C° 0 mm 0 mps 750 mmHg 90%
    07:00 -3°C° 0 mm 0 mps 750 mmHg 90%
    08:00 -2°C° 0 mm 0 mps 750 mmHg 88%
    09:00 -1°C° 0 mm 1 mps 750 mmHg 86%
    10:00 -1°C° 0 mm 1 mps 750 mmHg 85%
    11:00 -1°C° 0 mm 1 mps 750 mmHg 83%
    12:00 0°C° 0 mm 1 mps 750 mmHg 82%
    13:00 0°C° 0 mm 1 mps 750 mmHg 81%
    14:00 0°C° 0 mm 1 mps 750 mmHg 82%
    15:00 -1°C° 0 mm 1 mps 749 mmHg 83%
    16:00 -1°C° 0 mm 1 mps 749 mmHg 85%
    17:00 -3°C° 0 mm 2 mps 749 mmHg 85%
    18:00 -3°C° 0 mm 2 mps 749 mmHg 85%
    19:00 -4°C° 0 mm 2 mps 749 mmHg 86%
    20:00 -4°C° 0 mm 2 mps 749 mmHg 88%
    21:00 -4°C° 0 mm 2 mps 750 mmHg 89%
    22:00 -5°C° 0 mm 3 mps 750 mmHg 91%
    23:00 -5°C° 0 mm 3 mps 750 mmHg 92%

    21 January, Monday

    Time Temperature Precipitation Wind Pressure Humidity
    00:00 -5°C° 0 mm 3 mps 750 mmHg 92%
    01:00 -4°C° 0 mm 4 mps 750 mmHg 92%
    02:00 -5°C° 0 mm 4 mps 750 mmHg 90%
    03:00 -6°C° 0 mm 3 mps 751 mmHg 88%
    04:00 -6°C° 0 mm 3 mps 751 mmHg 86%
    05:00 -6°C° 0 mm 3 mps 751 mmHg 86%
    06:00 -7°C° 0 mm 4 mps 752 mmHg 86%
    07:00 -8°C° 0 mm 4 mps 752 mmHg 86%
    08:00 -7°C° 0 mm 4 mps 753 mmHg 84%
    09:00 -7°C° 0 mm 4 mps 753 mmHg 82%
    10:00 -6°C° 0 mm 5 mps 754 mmHg 80%
    11:00 -6°C° 0 mm 5 mps 754 mmHg 79%
    12:00 -5°C° 0 mm 5 mps 754 mmHg 78%
    13:00 -5°C° 0 mm 5 mps 755 mmHg 76%
    14:00 -4°C° 0.1 mm 4 mps 755 mmHg 79%
    15:00 -5°C° 0.1 mm 4 mps 755 mmHg 82%
    16:00 -5°C° 0.1 mm 3 mps 756 mmHg 85%
    17:00 -6°C° 0 mm 3 mps 756 mmHg 86%
    18:00 -6°C° 0 mm 3 mps 756 mmHg 87%
    19:00 -6°C° 0 mm 3 mps 757 mmHg 88%
    20:00 -6°C° 0 mm 3 mps 757 mmHg 88%
    21:00 -6°C° 0 mm 3 mps 757 mmHg 89%
    22:00 -7°C° 0 mm 3 mps 757 mmHg 89%
    23:00 -7°C° 0 mm 3 mps 758 mmHg 90%
    Show more